Погода в Саскылахе

Погода в Саскылахе : погода сейчас, прогноз погоды и архив. Всё, что Вы хотите узнать о погоде в Саскылахе!

Хотите узнать прогноз погоды в Саскылахе? Тогда Вам сюда: Погода в Саскылахе

Поиск расширенной информации на нашем сайте:

Другие новости

Новости СМИ2

Главная страница сайта

Новости сайта

02.10.2013

Напоминаем, что на нашем новом сайте вы можете получить высокодетализированные прогнозы погоды по пунктам России, СНГ и мира (включающие важные для авиации метеовеличины, такие как направление и скорость ветра, видимость, явления погоды, количество и форма облачности, нижняя и верхняя граница облачности), а также ознакомиться с разнообразными материалами по авиационной метеорологии и подборкой полезных ссылок на эту тему.

Сайт Метеоцентр.Азия посвящён разработке технологий оптимизации авиаметеорологического обслуживания, включая проектирование и перспективное создание нескольких автоматизированных авиаметеорологических систем:
- система выпуска высокодетальных прогностических карт явлений погоды для нижнего воздушного пространства по России и ближнему зарубежью;
- система верификации прогнозов TAF (выпускаемых синоптиками официальных АМСГ РФ и ближнего зарубежья) и AUTOTAF (выпускаемых сайтом Метеоцентр.Азия) - выявление ошибок, онлайн-сопоставление с фактической погодой METAR, автоматическое внесение коррективов в прогнозы при резком отклонении фактической погоды от прогноза, подсчёт оправдываемости прогнозов по элементам и в целом;
- система обработки, анализа и отображения авиаметеорологической информации для применения провайдерами метеорологической информации.

Рекомендуем: разместить услугу

Погода в Саскылахе - сегодня

Время (UTC), дата Ветер
(°,м/с) 
Видим.   Явления Облачность Т
(°С)
Тd
(°С)
f(%) Тe
(°С)
Pmin
(гПа)
dP
(гПа)
Po
(мм)
O2
(г/м3)
Тmin Tmax R s Состояние
почвы
00 21.03.17 210 (ЮЗ) 20000 м    10/8 450 м средняя 
[Sc|Ac und]
-5.4 -7.2 87 -9  1018.9  762  314  -5.9      49  неравномерный
сухой снег
100% 
03 21.03.17 230 (ЮЗ) 20000 м    10/6 900 м средняя 
[Sc|Ac und]
-3.8 -6 85 -7  1018.9  762  312           
06 21.03.17 230 (ЮЗ) 20000 м    10/10 1000 м 
[Sc]
-2.8 -5.8 80 -7  1016.9  -2  761  310           
09 21.03.17 210 (ЮЗ) 20000 м    10/0 средняя 
[Ac und]
-3.4 -5.9 83 -8  1016.9  761  311           
15 21.03.17 270 (З) 20000 м    10/0 средняя 
[Ac und]
-4.2 -5.4 91 -9  1014.5  -0.5  759  311           
18 21.03.17 300 (СЗ) 8-12{13}  н/о    н/о 
-6.9 -8.8 86 -13  1016.2  1.8  761  315           
21 21.03.17 260 (З) 20000 м    10/10 500 м 
[Sc]
-7.3 -9.5 84 -12  1017.5  1.1  761  316           
15 22.03.17 200 (Ю) 20000 м    10/0 средняя 
[Ac und]
-8.1 -11.7 75 -11  1020.2  -0.4  763  318           
18 22.03.17 110 (В) 20000 м    8/0 средняя 
[Ac trans]
-8.6 -10.9 83 -8  1017.9  -2.3  762  318           
21 22.03.17 170 (Ю) 20000 м    8/0 средняя 
[Ac und]
-10 -14.1 72 -14  1015.9  -2  760  319           
00 23.03.17 170 (Ю) 20000 м    10/0 средняя 
[Ac und]
-7.2 -9.8 82 -10  1014.2  -1.7  759  315  -10.1      49  неравномерный
сухой снег
100% 
03 23.03.17 230 (ЮЗ) 20000 м    10/0 средняя 
[Ac und]
-5.8 -8.5 81 -9  1012.7  -1.5  758  313           
06 23.03.17 200 (Ю) 20000 м    10/0 средняя 
[Ac und]
-4.5 -7.2 81 -9  1011.7  -1  757  311           
09 23.03.17 220 (ЮЗ) 20000 м    10/0 средняя 
[Ac und]
-4.5 -7.2 81 -8  1010.2  -1.5  756  310           
12 23.03.17 240 (ЮЗ) 20000 м    10/0 средняя 
[Ac und]
-6.5 -8.1 88 -9  1010.2  756  313    -4.5       
15 23.03.17 270 (З) 20000 м    ясно 
-8.4 -9.9 89 -10  1010.2  756  315           
18 23.03.17 270 (З) 20000 м    ясно 
-10.4 -11.2 94 -13  1010.2  756  318           
21 23.03.17 100 (В) 20000 м  слаб. снег  10/10 480 м 
[Sc]
-10.5 -11.6 92 -10  1013.2  758  319           
00 24.03.17 310 (СЗ) 20000 м  слаб. снег  10/8 450 м средняя 
[Sc|Ac und]
-9.7 -11.3 88 -10  1013.9  0.7  759  318  -10.6    0.2  49  неравномерный
сухой снег
100% 
03 24.03.17 210 (ЮЗ) 20000 м  в посл. час снег  10/0 средняя, верхняя 
[As trans|Cs]
-9.4 -12.4 79 -9  1014.4  0.5  759  318           
06 24.03.17 240 (ЮЗ) 20000 м  {снег}  10/0 средняя, верхняя 
[As trans|Cs]
-9.2 -12.1 79 -12  1014.6  0.2  759  318           
09 24.03.17 240 (ЮЗ) 20000 м    6/0 верхняя 
[Ci fib]
-9 -12.4 76 -11  1014.9  0.3  759  318           
15 24.03.17 130 (ЮВ) 20000 м    ясно 
-15.7 -17.1 89 -18  1014.3  -0.7  759  326           
18 24.03.17 150 (ЮВ) 20000 м    ясно 
-17.4 -18.9 88 -20  1013  -1.3  758  328           
21 24.03.17 120 (ЮВ) 20000 м    10/0 средняя 
[Ac und]
-14.3 -15.6 90 -19  1009.7  -3.3  755  323           
Время (UTC), дата Ветер
(°,м/с) 
Видим.   Явления Облачность Т
(°С)
Тd
(°С)
f(%) Тe
(°С)
Pmin
(гПа)
dP
(гПа)
Po
(мм)
O2
(г/м3)
Тmin Tmax R s Состояние
почвы

Для получения пояснительной информации подведите курсор к названию столбца.

ПОГОДА в Саскылахе - архив

Всё, что Вы хотите узнать о погоде в Саскылахе - удобно и подробно!

Выберите нужную дату (начиная с 1 января 2015* года) и нажмите кнопку "Найти".
Будут отображены архивные сводки погоды по пункту Саскылах, начиная с указанной даты.


Отображать данные в формате CSV (для использования в таблицах Excel)


Внимание! Наш архив погоды предназначен исключительно для личного некоммерческого использования в познавательных целях. Если Вам необходимы официальные справки о состоянии погоды (для производственных, юридических, коммерческих и т.п. целей), обращайтесь в органы Росгидромета.

*Примечание: данная дата относится к архиву по метеостанциям СССР (Россия, СНГ, Балтия).
Архив по метеостанциям Зарубежной Европы и Азии (кроме Китая) хранится 10 дней, по другим регионам земного шара (Китай, Африка, Америка, Австралия, Океания) - 1 день.

Саскылах - район местоположения метеостанции


Название, широта, долгота, высота метеостанции:
Саскылах 72°ш. 114.1°д. 18 м над ур. моря [Российская Федерация]

Дополнительная информация

В oтличие oт бoльшинства пoгoдных сайтoв мы публикуем пoдрoбную метеoинфoрмацию в детальнoм прoфессиoнальнoм фoрмате.

Характеристики температуры и влажнoсти вoздуха измеряются на высoте 2 м в тени вдали oт зданий и деревьев.
Скoрoсть ветра измеряется на высoте 10 м (на урoвне рoста челoвека скoрoсть ветра ниже в 1.5-2 раза). Если метеoстанция нахoдится в гoрoде или в лесу, тo скoрoсть ветра занижена на 2-4 м/с пo сравнению с oткрытым местoм. Скoрoсть ветра над акватoриями крупных рек и oзёр, а также на вершинах хoлмoв на 2-5 м/с выше, чем в oбычных услoвиях.
Атмoсфернoе давление в разных тoчках местнoсти мoжет значительнo oтличаться oт давления на метеoстанции, в зависимoсти oт услoвий рельефа (при пoдъёме на 10 м давление пoнижается примернo на 1 мм рт.ст.).